Reflectivity
-16 -20 -10 -2 -18 -20 -20 -20 -20 -20 -20 -20 -20 -20 -20 -20 -20 -20 -20 -20 -20 -20 -20 -20 -20 -20 -20 -20 -20 -20 -20 -20 -20 -20 -20 -20 -20 -20 -20 -20 -20 -20 -20 -20 -20
-20 -16 -20 -20 -20 -20 -20 -20 -20 -20 -20 -20 -20 -20 -20 -20 -20 -20 -20 -20 -20 -20 -20 -20 -20 -20 -20 -20 -20 -20 -20 -20 -20 -20 -20 -20 -20 -20 -20 -20 -20 -20 -20 -20 -20
-20 -20 -20 -20 -20 -20 -20 -20 -20 -20 -20 -20 -20 -20 -20 -20 -20 -20 -20 -20 -20 -20 -20 -20 -20 -20 -20 -20 -20 -20 -20 -20 -20 -20 -20 -20 -20 -20 -20 -20 -20 -20 -20 -20 -20
-20 -20 -20 -20 -20 -20 -11 -13 -19 -20 -20 -20 -20 -20 -20 -20 -20 -20 -20 -20 -20 -20 -20 -20 -20 -20 -20 -20 -20 -20 -20 -20 -20 -20 -20 -20 -20 -20 -20 -20 -20 -20 -20 -20 -20
-20 -20 -20 -20 -20 -20 -20 -20 -18 -20 -20 -20 -20 -20 -20 -20 -20 -20 -20 -20 -20 -20 -20 -20 -20 -20 -20 -20 -20 -20 -20 -20 -20 -20 -20 -20 -20 -20 -20 -20 -20 -20 -20 -20 -20
-20 -20 -20 -20 -20 -20 -20 -20 -20 -20 -20 -20 -20 -13 -20 -20 -20 -20 -20 -20 -20 -20 -20 -20 -20 -20 -20 -20 -20 -20 -20 -20 -20 -20 -20 -20 -20 -20 -20 -20 -20 -20 -20 -20 -20
-20 -20 -20 -20 -20 -20 -20 -20 -20 -20 -20 -20 -20 -20 -20 -20 -20 -20 -20 -20 -20 -20 -20 -20 -20 -20 -20 -20 -20 -20 -20 -20 -20 -20 -20 -20 -20 -20 -20 -20 -20 -20 -20 -20 -20
-20 -20 -20 -20 -20 -20 -20 -20 -20 -20 -20 -20 -20 -20 -20 -20 -20 -20 -20 -20 -20 -20 -20 -20 -20 -20 -20 -20 -20 -20 -20 -20 -20 -20 -20 -20 -20 -20 -20 -20 -20 -20 -20 -20 -20
-20 -20 -20 -20 -20 -20 -20 -20 -20 -20 -20 -20 -20 -20 -20 -20 -20 -20 -20 -20 -20 -20 -20 -20 -20 -20 -20 -20 -20 -20 -20 -20 -20 -20 -20 -20 -20 -20 -20 -20 -20 -20 -20 -20 -20
-20 -20 -20 -20 -20 -20 -20 -20 -20 -20 -20 -20 -20 -20 -20 -20 -20 -20 -20 -20 -20 -20 -20 -20 -20 -20 -20 -20 -20 -20 -20 -20 -20 -20 -20 -20 -20 -20 -20 -20 -20 -20 -20 -20 -20
-20 -20 -20 -20 -20 -20 -20 -20 -20 -20 -20 -20 -20 -20 -20 -20 -20 -20 -20 -20 -20 -20 -20 -20 -20 -20 -20 -20 -20 -16 -20 -20 -20 -20 8 -20 -20 -20 -20 -20 -20 -20 -20 -20 -20
-20 10 -20 -20 -20 -20 -20 -20 -20 -20 -20 -20 -20 -20 -20 -20 -20 -20 -20 -20 -20 -20 -20 -20 -20 -20 -20 -20 -20 -20 -20 -20 -20 -20 -20 -20 -20 -20 -20 -20 -20 -20 -20 -20 -20
-20 -20 -20 -20 -20 -20 -20 -20 -20 -20 -20 -20 -20 -20 -20 -20 -20 -20 -20 -20 -20 -20 -20 -20 -20 -20 -20 -20 -17 -20 -20 -20 4 -9 -7 -20 -20 -13 -20 -20 -20 -20 -20 -20 -20
-20 -9 -8 -20 -20 -20 -20 -20 -20 -20 -20 -20 -20 -20 -20 -20 -20 -20 -20 -20 -20 -20 -20 -20 -20 -20 -20 -20 -20 -20 -20 -1 6 -17 -20 -1 -5 -20 -20 -20 -20 -20 -20 -20 -20
-20 -20 3 -20 -20 -20 -20 -20 -20 -19 -20 -20 -20 -20 -20 -20 -20 -20 -20 -20 -20 -20 -20 -20 -20 -20 -4 -20 -11 1 -5 -6 2 -20 3 -20 -20 -20 -16 -20 -20 -20 -20 -20 -20
-14 3 9 -20 -20 -20 -20 -20 -20 -14 -20 -20 -20 -20 -20 -20 -20 -20 -20 -20 -20 -20 -20 -20 -20 -20 -20 -20 -20 -15 -19 -20 -20 -18 -10 -20 -20 -20 5 -20 -18 -20 -20 -20 -20
-20 17 17 -20 -20 19 -5 -20 -20 -20 -20 -20 -20 -20 -20 -20 -20 -20 -20 -20 -20 -20 -20 -20 -20 -3 -13 -20 -2 -9 -20 -20 -4 -2 -18 -20 -20 -20 12 -10 -20 13 -20 -20 -20
-20 19 -7 -20 -20 17 -20 8 -3 -20 -20 -20 -20 -7 -20 -20 -20 -20 -20 -20 -20 -20 -20 -20 -20 -1 -0 -20 -6 -20 -20 -20 -17 -1 -3 -10 -0 -20 6 4 -20 -0 -20 -20 -20
-19 -8 20 -18 15 15 7 13 -20 -20 -20 -20 -20 -20 -20 -20 -20 -20 -20 -20 -20 -20 -20 -20 -20 -20 -20 -20 5 -18 -17 -20 -20 -13 19 -11 -20 9 -16 5 5 -20 -20 -20 -20
15 19 10 -0 21 -1 14 -12 -20 -20 -20 -20 -20 -20 -20 -14 -8 -20 -20 -20 -20 -20 -20 -14 19 -20 -20 -20 2 -20 9 -20 -20 -19 -20 -20 18 9 19 13 10 -17 -20 -20 -20
-0 24 -20 -20 25 20 6 -20 -20 -20 -20 -20 -20 -20 -20 9 18 -4 -20 27 -10 -17 -20 -20 -20 25 -20 -20 -17 2 -20 -20 -20 -20 -20 -9 6 9 17 10 25 8 8 -20 -20
10 24 -1 20 20 5 7 0 -20 -20 -20 -20 -20 -20 -20 14 -15 8 -18 27 -11 -20 -20 -20 -20 -20 1 -20 -20 -19 -20 -2 -20 -20 -18 -20 -15 18 17 22 21 6 -11 -7 -20
18 5 23 23 20 10 -5 -18 -20 -20 -20 -20 -20 -20 -20 -18 -7 -5 -19 -20 -20 -20 -7 -20 -17 -20 13 -6 -20 -20 -20 -20 -13 -20 -20 4 -4 12 16 25 13 1 -12 -20 -20
27 20 8 24 -1 16 24 3 -20 -20 -13 -5 -20 -20 -20 -20 -18 -18 -19 -20 -20 -20 -20 -20 -20 -20 -0 7 -20 -20 4 -1 -3 12 -11 -20 -17 20 11 19 4 -2 -20 -20 -20
22 1 20 27 8 -12 -9 17 19 -2 -20 -20 -20 -20 -20 -10 -20 -16 -20 -20 -20 -20 -20 -20 -20 -20 -20 -20 -20 -20 -20 -20 -20 -20 -20 -20 -20 7 24 5 -18 -20 -20 -20 -20
17 15 -20 -4 15 22 14 -14 9 -20 4 -19 -20 -20 -20 -13 -20 -20 -20 -20 -20 -20 -20 -20 -20 -20 -20 -20 -20 -20 -20 -20 -20 -20 -20 -20 -20 -20 -20 -20 -6 -20 -4 -19 -20
7 -20 16 2 29 19 17 22 -20 -20 -10 -20 9 -16 4 4 6 -20 -20 -3 -20 -20 -11 3 -20 -16 -19 -19 -20 -20 -20 -20 -20 -20 -20 -20 -20 -16 -20 -20 -20 -6 -17 -20 -20
Wind_Speed
13 16 17 17 17 18 18 17 18 20 20 21 23 23 25 26 29 21 20 13 8 10 4 9 14 16 14 17 18 19 14 15 22 22 12 9 5 5 9 9 13 13 11 11 15
15 15 16 17 17 17 19 19 18 20 21 21 22 22 24 24 26 21 9 6 8 10 9 14 16 15 14 14 17 17 13 20 22 19 10 12 17 7 9 12 14 12 1 4 7
14 15 16 17 18 19 19 19 19 22 21 21 22 21 23 21 12 2 6 7 8 9 14 18 17 16 18 17 19 20 19 19 23 24 19 13 13 12 15 15 12 11 9 5 2
12 14 15 17 18 19 18 19 21 23 23 22 23 22 23 9 7 7 6 9 9 10 11 15 18 19 19 20 20 24 23 21 22 22 20 20 16 15 16 16 13 14 9 3 5
9 11 13 17 18 19 19 20 22 24 23 23 22 20 13 9 20 16 9 8 8 10 14 16 17 19 21 20 21 22 23 21 21 20 21 19 19 18 19 16 15 15 6 4 7
11 11 12 14 17 19 20 21 22 23 23 23 20 14 8 16 15 5 7 6 12 12 14 15 16 17 19 19 20 21 22 20 22 19 18 23 20 18 20 17 17 16 6 9 10
12 12 13 15 15 18 20 22 24 23 24 24 16 8 12 27 15 21 10 9 13 13 18 17 17 18 14 16 20 20 23 22 21 21 22 21 23 23 22 20 18 9 10 9 11
14 14 14 15 15 17 21 25 26 25 23 19 11 9 11 16 12 13 14 15 17 13 14 15 15 17 20 18 23 19 18 18 16 22 25 24 20 21 19 10 10 13 12 10 10
16 15 14 15 16 19 24 26 30 26 18 11 6 9 11 4 10 13 16 15 14 16 14 9 11 14 15 16 17 17 19 22 23 23 21 13 17 17 9 8 11 10 10 12 11
16 16 14 15 16 19 24 31 29 16 10 11 11 10 11 8 4 7 13 10 12 12 17 15 9 15 16 15 18 19 21 20 21 21 21 18 15 16 17 15 15 13 12 11 12
16 15 13 11 15 18 19 13 6 7 10 16 8 17 21 18 19 13 12 13 11 14 17 19 16 19 22 22 24 22 22 22 22 20 19 12 12 14 15 16 13 12 10 12 10
17 14 13 13 16 18 15 8 6 6 16 19 27 32 32 24 24 24 13 15 16 18 17 16 23 21 22 23 24 25 25 26 22 23 21 20 15 14 15 18 15 16 14 10 11
15 15 13 14 19 15 10 13 7 13 9 16 27 26 23 22 26 25 18 18 20 20 20 20 17 24 22 23 25 25 24 20 23 21 24 22 17 15 19 20 19 18 12 8 13
14 15 11 13 15 11 10 9 9 8 8 11 10 8 12 8 11 20 21 22 20 24 20 22 20 21 22 23 22 24 19 20 16 18 15 20 16 18 15 17 16 19 14 6 8
15 14 12 9 13 12 9 7 9 2 6 5 11 12 17 14 4 8 14 16 23 21 16 21 20 21 22 23 16 19 20 17 17 18 19 23 16 11 15 14 18 14 14 15 14
14 16 12 12 12 14 12 8 7 6 10 8 10 12 14 15 12 7 7 14 10 21 24 22 20 22 22 21 22 16 16 13 13 11 17 19 21 14 14 18 13 8 6 2 12
16 16 10 10 13 12 9 8 7 9 11 13 12 14 15 15 13 12 12 13 10 9 17 22 23 22 20 14 16 16 10 8 9 7 11 16 18 14 12 16 5 10 9 4 11
15 13 11 12 12 9 8 10 13 13 18 13 5 10 8 11 10 13 13 12 16 15 13 11 16 25 17 19 18 19 17 9 13 10 9 9 10 14 13 18 8 3 2 13 11
16 10 12 11 12 5 8 13 12 16 15 14 18 10 13 13 3 10 15 13 12 15 7 9 17 18 24 16 20 18 20 17 18 7 2 8 15 18 5 10 6 3 6 9 12
9 8 14 13 10 7 8 21 18 24 22 10 14 9 14 12 15 11 13 13 6 2 4 5 9 5 4 22 16 17 11 13 11 14 14 9 4 8 10 5 6 7 7 8 10
3 5 9 14 10 8 12 18 17 24 21 5 12 15 20 7 4 17 7 6 6 5 7 6 6 4 5 7 14 14 16 16 13 12 10 8 3 4 11 12 10 12 5 3 1
3 5 3 10 8 8 14 20 22 20 15 7 14 16 16 11 7 13 3 6 11 6 6 7 5 5 13 7 1 6 18 19 11 12 8 10 7 8 1 10 8 10 12 3 6
4 9 2 3 7 12 14 20 21 18 17 8 13 18 18 10 7 10 6 10 9 8 7 8 4 6 7 5 8 8 10 10 16 11 14 6 6 9 10 6 1 5 10 13 3
4 4 7 4 10 15 11 18 16 15 15 13 14 18 18 14 11 8 3 3 4 5 6 5 6 10 7 9 10 4 9 6 7 5 10 12 12 4 17 15 4 5 6 10 10
3 6 4 3 10 15 17 9 11 15 9 13 16 20 17 15 15 18 14 14 8 6 3 3 6 13 16 14 13 12 12 11 11 8 8 12 15 13 8 11 12 11 11 12 14
3 4 8 12 15 11 15 16 17 14 12 14 16 15 19 19 16 18 19 13 9 7 10 2 8 10 14 16 15 17 17 18 16 15 15 15 19 16 15 13 12 10 9 11 12
4 10 6 7 8 14 12 13 17 16 7 16 11 11 15 15 11 15 6 8 6 9 2 2 4 7 10 12 14 13 15 16 15 16 15 17 14 14 13 14 11 12 16 15 11
Wind_Direction
354 352 350 345 344 340 337 336 333 329 328 326 324 325 319 319 315 301 272 257 210 155 170 234 218 227 240 244 242 244 254 264 269 269 315 3 231 227 245 268 257 255 257 230 114
344 346 345 340 340 338 332 332 329 327 326 324 321 321 316 322 306 281 259 106 137 155 215 225 219 223 230 238 239 238 246 255 260 287 315 318 305 279 293 281 275 291 14 119 168
346 347 342 340 337 336 330 328 326 324 324 322 320 321 319 318 289 121 150 167 174 179 238 231 234 229 234 238 240 241 240 257 278 298 314 297 285 270 269 277 287 276 315 331 226
339 339 338 336 335 332 329 326 320 320 321 320 318 322 317 293 284 92 142 124 162 216 225 237 242 237 235 241 245 252 252 253 272 286 298 298 283 277 278 282 294 292 308 334 261
325 325 330 332 331 329 327 322 316 315 315 315 316 321 319 253 253 276 146 156 192 211 215 225 237 232 242 244 252 257 259 257 258 268 289 275 275 278 272 272 281 272 282 272 260
307 314 319 326 327 325 323 318 313 310 309 309 309 309 258 265 266 267 251 273 249 227 240 237 243 236 254 255 252 264 274 275 269 260 269 276 271 265 263 258 254 256 246 266 224
303 309 310 316 320 318 317 314 310 307 307 306 300 268 263 250 293 311 281 248 276 242 250 241 255 265 260 263 266 280 278 277 271 268 266 263 265 262 261 247 241 242 267 243 244
309 303 308 308 310 316 315 311 306 303 304 296 290 252 258 267 291 288 279 265 257 269 272 262 268 271 258 270 280 279 265 270 265 255 252 245 257 262 265 222 194 224 225 233 246
314 303 304 309 315 319 313 309 300 296 286 277 259 221 256 270 234 249 225 246 248 236 246 268 266 255 260 248 257 254 259 262 274 268 257 239 260 270 216 209 219 230 236 213 205
318 308 304 314 317 316 313 305 285 284 236 240 249 256 250 233 325 314 293 270 248 236 228 225 240 239 230 241 237 241 245 249 261 268 275 227 237 258 268 215 222 216 224 227 186
314 304 300 311 310 309 320 319 292 190 224 241 243 238 287 290 293 245 258 229 236 227 222 211 222 228 224 227 245 261 266 267 262 268 250 257 239 260 278 277 252 242 202 223 181
318 300 303 310 300 299 301 267 39 319 290 263 258 261 263 270 275 262 261 233 216 227 217 225 224 234 239 244 241 237 248 263 273 284 293 293 262 269 280 278 266 258 255 194 160
318 310 303 301 297 296 242 291 340 343 266 278 241 244 248 233 246 246 240 234 240 224 231 220 236 220 234 244 243 245 247 246 265 284 285 284 272 267 261 256 256 263 241 213 176
301 304 295 309 288 311 285 16 358 341 281 267 194 242 206 217 253 230 234 225 228 242 232 242 244 244 247 226 241 251 243 259 265 273 274 279 281 254 261 269 262 223 228 203 233
289 291 285 277 297 290 311 354 319 289 277 140 143 135 156 203 22 172 196 229 236 238 231 247 249 258 243 255 236 251 258 241 239 234 270 274 270 263 273 262 263 189 200 197 195
288 287 277 268 249 263 275 337 271 227 236 251 155 187 200 213 238 157 190 218 239 239 256 260 269 254 239 249 248 260 239 243 268 254 250 246 261 257 253 256 253 194 143 248 166
293 289 250 269 280 327 340 267 222 236 253 254 196 207 209 218 210 212 190 201 210 204 231 244 249 260 266 260 262 210 215 228 221 216 245 254 245 247 256 260 282 141 145 145 142
295 286 246 249 262 314 253 236 232 236 227 292 302 316 236 248 220 206 227 213 217 235 273 218 238 232 239 222 238 209 209 216 216 218 261 329 255 242 221 251 224 197 88 156 160
311 263 254 246 250 248 255 226 225 235 300 332 320 243 260 229 257 207 219 228 234 207 248 293 263 219 211 209 237 218 210 227 271 246 189 268 282 267 270 286 132 153 195 158 161
289 278 261 239 224 232 235 243 241 264 303 302 280 291 276 253 194 217 225 204 132 13 255 287 275 175 216 209 218 252 220 212 234 250 251 243 256 286 285 246 221 204 205 172 170
297 251 249 200 167 210 230 232 254 262 279 280 280 277 290 336 295 281 256 19 109 121 317 335 269 290 173 194 217 218 243 246 258 225 245 257 232 281 333 342 38 1 42 66 221
266 246 178 139 197 218 237 249 262 271 254 211 280 284 293 332 297 296 1 70 22 356 321 65 307 266 264 180 233 315 221 230 235 239 241 251 236 147 121 348 13 3 358 23 328
249 262 203 226 223 228 236 250 255 262 254 261 261 267 274 274 290 254 324 51 23 12 23 354 264 284 260 259 233 246 250 238 228 252 254 272 288 206 192 176 69 358 335 337 44
283 267 195 212 255 272 270 251 244 253 257 264 264 273 264 274 256 281 273 88 36 357 352 343 288 288 281 337 347 292 288 317 285 256 244 250 260 196 316 307 344 8 335 319 334
217 245 280 233 231 248 258 261 271 250 236 258 255 263 264 247 263 272 269 279 235 171 232 235 271 287 287 287 290 284 282 279 278 271 273 281 284 289 330 336 326 332 336 328 324
245 253 279 269 276 264 254 253 260 284 273 222 253 253 247 260 260 268 266 252 247 237 217 287 263 268 272 278 272 275 270 269 264 264 262 259 265 279 290 306 308 300 293 293 298
223 275 290 274 307 278 254 260 252 249 271 283 236 276 278 254 280 242 313 315 311 311 44 309 250 272 271 274 267 263 253 256 259 255 256 259 270 270 273 269 301 334 336 321 302